Stations météo

réclame
Mon MeteoGroup
Jerez De La Frontera aeropuert, Espagne (8451): Température de l'air & dewpoint: 11.07.2018 13:00:00 - 17.07.2018 13:00:00 (CEST)Jerez De La Frontera aeropuert, Espagne (8451): Vitesse du vent: 11.07.2018 13:00:00 - 17.07.2018 13:00:00 (CEST)Jerez De La Frontera aeropuert, Espagne (8451): Direction du vent: 11.07.2018 13:00:00 - 17.07.2018 13:00:00 (CEST)Jerez De La Frontera aeropuert, Espagne (8451): reduced air pressure: 11.07.2018 13:00:00 - 17.07.2018 13:00:00 (CEST)Jerez De La Frontera aeropuert, Espagne (8451): visibility: 11.07.2018 13:00:00 - 17.07.2018 13:00:00 (CEST)
Date & Time tt [°C] td [°C] ff [km/h] ff [knt] dd ppp [hPa] vv [km]
17.07.2018 13:00:00 33,0 16,0 9 5 SW 1014,3 10
17.07.2018 12:00:00 31,0 16,0 4 2 SSE 1014,8 10
17.07.2018 11:00:00 27,8 15,8 4 2 - 1014,9 10
17.07.2018 10:00:00 24,3 16,1 4 2 - 1015,3 10
17.07.2018 09:00:00 20,3 15,5 0 0 N 1015,1 10
17.07.2018 08:00:00 15,9 13,9 4 2 N 1015,0 10
17.07.2018 07:00:00 14,8 13,4 8 4 N 1015,0 10
17.07.2018 06:00:00 15,6 13,9 2 1 - 1014,8 10
17.07.2018 05:00:00 15,8 14,2 5 3 N 1015,0 10
17.07.2018 04:00:00 16,0 14,4 4 2 - 1015,5 10
17.07.2018 03:00:00 16,7 14,9 4 2 - 1016,0 10
17.07.2018 02:00:00 17,0 14,8 5 3 ENE 1016,6 10
17.07.2018 01:00:00 18,0 15,4 4 2 E 1016,8 10
17.07.2018 00:00:00 19,1 16,1 4 2 - 1016,9 10
16.07.2018 23:00:00 20,8 16,6 5 3 WNW 1016,8 10
16.07.2018 22:00:00 22,5 16,8 4 2 - 1016,6 10
16.07.2018 21:00:00 25,0 17,5 22 12 WNW 1016,1 10
16.07.2018 20:00:00 28,0 16,3 18 10 WNW 1016,3 10
16.07.2018 19:00:00 29,6 16,8 16 9 W 1016,8 10
16.07.2018 18:00:00 29,2 17,1 22 12 WSW 1017,4 10
16.07.2018 17:00:00 29,7 17,5 24 13 SW 1017,8 10
16.07.2018 16:00:00 29,7 18,2 15 8 S 1018,1 10
16.07.2018 15:00:00 30,5 14,2 8 4 - 1018,9 10
16.07.2018 14:00:00 29,3 15,6 8 4 N 1019,6 10
16.07.2018 13:00:00 27,3 16,0 4 2 SW 1020,4 10
16.07.2018 12:00:00 26,0 16,3 5 3 - 1020,8 10
16.07.2018 11:00:00 23,6 16,6 4 2 N 1020,8 10
16.07.2018 10:00:00 21,2 16,5 5 3 WNW 1020,8 10
16.07.2018 09:00:00 18,2 16,1 5 3 NW 1020,7 10
16.07.2018 08:00:00 14,9 14,1 0 0 N 1020,7 10
16.07.2018 07:00:00 14,1 13,3 0 0 N 1020,4 10
16.07.2018 06:00:00 14,3 13,7 4 2 - 1020,1 10
16.07.2018 05:00:00 15,3 14,5 0 0 N 1020,5 10
16.07.2018 04:00:00 15,6 14,6 4 2 - 1020,8 10
16.07.2018 03:00:00 16,8 15,3 0 0 N 1020,9 10
16.07.2018 02:00:00 18,6 16,9 8 4 S 1021,1 10
16.07.2018 01:00:00 19,3 17,1 8 4 S 1021,2 10
16.07.2018 00:00:00 19,3 17,0 8 4 S 1021,2 10
15.07.2018 23:00:00 20,0 16,9 11 6 WSW 1021,1 10
15.07.2018 22:00:00 20,8 16,8 15 8 WSW 1020,3 10
15.07.2018 21:00:00 22,6 16,3 22 12 WSW 1019,7 10
15.07.2018 20:00:00 24,1 15,8 22 12 WSW 1019,6 10
15.07.2018 19:00:00 25,7 15,9 24 13 WSW 1019,8 10
15.07.2018 18:00:00 26,4 15,4 26 14 WSW 1020,0 10
15.07.2018 17:00:00 27,2 14,6 26 14 WSW 1019,8 10
15.07.2018 16:00:00 26,9 14,1 22 12 W 1020,0 10
15.07.2018 15:00:00 26,8 14,2 22 12 WSW 1020,4 10
15.07.2018 14:00:00 26,7 14,9 18 10 W 1020,7 10
15.07.2018 13:00:00 25,0 15,6 16 9 WSW 1020,8 10
15.07.2018 12:00:00 25,2 15,7 11 6 WSW 1020,6 10
15.07.2018 11:00:00 23,2 16,3 9 5 WSW 1020,7 10
15.07.2018 10:00:00 21,0 16,1 8 4 NW 1020,7 10
15.07.2018 09:00:00 18,5 16,1 0 0 N 1020,4 10
15.07.2018 08:00:00 14,6 13,9 4 2 ENE 1020,0 10
15.07.2018 07:00:00 13,4 12,6 5 3 N 1019,7 10
15.07.2018 06:00:00 15,3 14,6 4 2 SW 1019,3 10
15.07.2018 05:00:00 15,2 14,2 4 2 - 1019,5 10
15.07.2018 04:00:00 16,0 15,0 8 4 S 1019,6 10
15.07.2018 03:00:00 16,2 14,4 2 1 - 1020,3 10
15.07.2018 02:00:00 17,5 15,1 8 4 SW 1020,8 10
15.07.2018 01:00:00 17,9 15,0 9 5 SW 1020,9 10
15.07.2018 00:00:00 18,7 15,6 9 5 SW 1020,8 10
14.07.2018 23:00:00 19,4 15,7 11 6 SW 1020,4 10
14.07.2018 22:00:00 20,5 15,0 13 7 WSW 1019,4 10
14.07.2018 21:00:00 22,6 14,2 18 10 WSW 1019,0 10
14.07.2018 20:00:00 24,4 14,8 21 11 WSW 1018,7 10
14.07.2018 19:00:00 26,0 14,2 21 11 WSW 1018,5 10
14.07.2018 18:00:00 26,7 14,6 16 9 W 1018,5 10
14.07.2018 17:00:00 27,5 15,2 16 9 WSW 1018,8 10
14.07.2018 16:00:00 27,2 16,4 16 9 WSW 1019,2 10
14.07.2018 15:00:00 26,6 16,7 18 10 WSW 1019,5 10
14.07.2018 14:00:00 26,3 17,1 15 8 SW 1019,8 10
14.07.2018 13:00:00 25,7 17,1 16 9 SSW 1019,8 9
14.07.2018 12:00:00 24,4 16,7 16 9 SSW 1019,6 9
14.07.2018 11:00:00 23,6 17,3 16 9 S 1019,3 9
14.07.2018 10:00:00 21,8 18,2 9 5 S 1019,0 7
14.07.2018 09:00:00 18,8 17,2 0 0 N 1018,5 6
14.07.2018 08:00:00 15,0 14,6 4 2 E 1018,3 4,5
14.07.2018 07:00:00 14,6 14,3 4 2 E 1018,1 7
14.07.2018 06:00:00 14,6 14,1 4 2 E 1017,9 10
14.07.2018 05:00:00 14,7 13,9 5 3 E 1018,2 10
14.07.2018 04:00:00 15,0 13,9 4 2 ENE 1018,1 10
14.07.2018 03:00:00 15,4 14,1 0 0 N 1018,3 10
14.07.2018 02:00:00 17,1 15,1 8 4 SE 1018,4 10
14.07.2018 01:00:00 18,7 15,8 8 4 WSW 1018,3 10
14.07.2018 00:00:00 19,5 15,9 9 5 SW 1018,2 10
13.07.2018 23:00:00 20,6 16,0 13 7 WSW 1017,5 10
13.07.2018 22:00:00 21,8 15,6 13 7 WSW 1016,8 10
13.07.2018 21:00:00 24,4 15,7 11 6 SW 1016,4 10
13.07.2018 20:00:00 26,0 16,0 15 8 SW 1016,0 10
13.07.2018 19:00:00 26,8 15,8 13 7 SW 1016,1 10
13.07.2018 18:00:00 26,9 16,5 18 10 SSW 1016,5 10
13.07.2018 17:00:00 27,5 16,5 15 8 SSW 1016,8 10
13.07.2018 16:00:00 27,7 16,0 18 10 SSW 1017,0 10
13.07.2018 15:00:00 27,6 15,4 15 8 - 1017,3 10
13.07.2018 14:00:00 26,9 15,3 13 7 SSW 1017,4 10
13.07.2018 13:00:00 26,1 15,4 11 6 - 1017,7 10
13.07.2018 12:00:00 24,3 15,8 11 6 S 1017,6 10
13.07.2018 11:00:00 23,5 15,5 9 5 SSE 1017,1 10
13.07.2018 10:00:00 22,3 15,0 8 4 S 1016,8 10
13.07.2018 09:00:00 21,0 15,1 9 5 S 1016,5 10
13.07.2018 08:00:00 20,4 15,4 5 3 S 1016,2 10
13.07.2018 07:00:00 20,8 14,7 15 8 SW 1015,9 10
13.07.2018 06:00:00 20,1 16,3 5 3 S 1016,0 10
13.07.2018 05:00:00 20,1 16,2 8 4 SSE 1015,9 10
13.07.2018 04:00:00 19,9 16,1 8 4 SSE 1016,0 10
13.07.2018 03:00:00 19,5 16,5 5 3 SSE 1016,1 10
13.07.2018 02:00:00 18,8 16,6 5 3 SSE 1016,4 10
13.07.2018 01:00:00 18,1 16,1 8 4 SSE 1016,5 10
13.07.2018 00:00:00 18,8 16,0 9 5 SSE 1016,4 10
12.07.2018 23:00:00 19,7 16,0 8 4 S 1015,9 10
12.07.2018 22:00:00 20,8 16,0 15 8 S 1015,4 10
12.07.2018 21:00:00 22,5 16,4 15 8 SSW 1015,4 10
12.07.2018 20:00:00 24,5 16,0 22 12 SW 1015,1 10
12.07.2018 19:00:00 25,5 15,5 22 12 SSW 1014,9 10
12.07.2018 18:00:00 26,6 16,6 21 11 SSW 1015,1 10
12.07.2018 17:00:00 26,8 16,1 22 12 SSW 1015,4 10
12.07.2018 16:00:00 26,9 16,9 18 10 SW 1015,7 10
12.07.2018 15:00:00 26,5 16,6 18 10 SW 1016,0 10
12.07.2018 14:00:00 25,2 16,9 18 10 SW 1016,5 10
12.07.2018 13:00:00 25,1 17,3 15 8 SW 1016,7 10
12.07.2018 12:00:00 23,5 17,2 16 9 SSW 1016,9 10
12.07.2018 11:00:00 22,5 17,2 21 11 SSW 1016,8 10
12.07.2018 10:00:00 21,7 17,6 15 8 S 1016,5 10
12.07.2018 09:00:00 20,7 17,1 13 7 S 1015,9 10
12.07.2018 08:00:00 20,2 17,2 8 4 S 1015,3 10
12.07.2018 07:00:00 19,9 17,3 8 4 S 1015,1 10
12.07.2018 06:00:00 19,9 17,5 9 5 S 1015,1 10
12.07.2018 05:00:00 19,8 17,4 13 7 S 1015,0 10
12.07.2018 04:00:00 19,7 17,5 9 5 S 1015,3 10
12.07.2018 03:00:00 19,6 17,4 9 5 S 1015,6 10
12.07.2018 02:00:00 19,4 17,5 11 6 S 1015,9 10
12.07.2018 01:00:00 19,3 17,4 9 5 S 1016,0 10
12.07.2018 00:00:00 19,9 17,5 9 5 SSW 1015,8 10
11.07.2018 23:00:00 20,5 17,9 11 6 SW 1015,6 10
11.07.2018 22:00:00 20,4 17,4 13 7 SW 1015,0 10
11.07.2018 21:00:00 22,6 17,5 15 8 SW 1014,6 10
11.07.2018 20:00:00 24,4 17,1 16 9 SW 1014,6 10
11.07.2018 19:00:00 25,6 16,9 16 9 SW 1014,7 10
11.07.2018 18:00:00 26,4 16,7 21 11 SW 1015,1 10
11.07.2018 17:00:00 27,1 17,1 21 11 SSW 1015,4 10
11.07.2018 16:00:00 27,2 16,8 16 9 SW 1015,8 10
11.07.2018 15:00:00 26,4 17,5 18 10 S 1016,1 10
11.07.2018 14:00:00 26,7 18,0 16 9 SSW 1016,5 10
11.07.2018 13:00:00 26,0 17,8 15 8 SSW 1016,7 10

tt = Température de l'air
td = dewpoint
ff = Vitesse du vent
dd = Direction du vent
ppp = reduced air pressure
vv = visibility

stations d'obs. à proximité